This demonstration page uses our WeatherBlox Daily Observations layout. Learn more.

Left ArrowRight Arrow

39.01783, -85.05884

Hourly Observations for September 15, 2020

Temp ( °F °C ) Dew Point ( °F °C ) Humidity (%) Winds ( mph kmh ) Pressure ( in mb ) Visibility ( mi km ) Precip ( " mm )
12:52 am 00:52 Clear 63 17.2 53 11.7 70 70 ENE 10 17 30.29 1026 10 16 0.00 0.00
1:52 am 01:52 Clear 61 16.1 53 11.7 75 75 E 14 22 30.30 1026 10 16 0.00 0.00
2:52 am 02:52 Partly Cloudy 60 15.6 52 11.1 75 75 ENE 12 19 30.29 1026 10 16 0.00 0.00
3:52 am 03:52 Mostly Clear 59 15 51 10.6 75 75 ENE 13 20 30.29 1026 10 16 0.00 0.00
4:52 am 04:52 Clear 58 14.4 50 10 75 75 ENE 12 19 30.29 1026 10 16 0.00 0.00
5:52 am 05:52 Clear 56 13.3 49 9.4 77 77 E 10 17 30.29 1026 10 16 0.00 0.00
6:52 am 06:52 Clear 56 13.3 49 9.4 77 77 ENE 9 15 30.28 1026 10 16 0.00 0.00
7:52 am 07:52 Sunny 56 13.3 49 9.4 77 77 ENE 8 13 30.29 1026 10 16 0.00 0.00
8:52 am 08:52 Mostly Sunny 56 13.3 49 9.4 77 77 ENE 8 13 30.29 1026 10 16 0.00 0.00
9:52 am 09:52 Sunny 58 14.4 50 10 75 75 ENE 9 15 30.28 1025 10 16 0.00 0.00
10:52 am 10:52 Sunny 61 16.1 50 10 67 67 ENE 7 11 30.29 1026 10 16 0.00 0.00
11:52 am 11:52 Mostly Sunny 64 17.8 48 8.9 56 56 E 8 13 30.28 1025 10 16 0.00 0.00
12:52 pm 12:52 Sunny 67 19.4 49 9.4 53 53 ENE 7 11 30.26 1025 10 16 0.00 0.00
1:52 pm 13:52 Sunny 68 20 48 8.9 49 49 Calm 30.24 1024 10 16 0.00 0.00
2:52 pm 14:52 Sunny 71 21.7 49 9.4 46 46 VRB 3 6 30.21 1023 10 16 0.00 0.00
3:52 pm 15:52 Sunny 72 22.2 47 8.3 41 41 VRB 3 6 30.19 1022 10 16 0.00 0.00
4:52 pm 16:52 Sunny 73 22.8 47 8.3 40 40 NNE 5 7 30.17 1022 10 16 0.00 0.00
5:52 pm 17:52 Sunny 72 22.2 46 7.8 40 40 NE 7 11 30.16 1021 10 16 0.00 0.00
6:52 pm 18:52 Sunny 70 21.1 49 9.4 47 47 E 8 13 30.16 1021 10 16 0.00 0.00
7:52 pm 19:52 Clear 65 18.3 50 10 59 59 ESE 7 11 30.16 1022 10 16 0.00 0.00
8:52 pm 20:52 Clear 63 17.2 49 9.4 60 60 ESE 7 11 30.16 1021 10 16 0.00 0.00
9:52 pm 21:52 Clear 61 16.1 49 9.4 65 65 E 6 9 30.17 1022 10 16 0.00 0.00
10:52 pm 22:52 Clear 61 16.1 49 9.4 65 65 E 6 9 30.16 1021 10 16 0.00 0.00
11:52 pm 23:52 Clear 60 15.6 50 10 70 70 E 3 6 30.15 1021 10 16 0.00 0.00

Powered by AerisWeather